| time (UTC) | temp F | wind direction | speed knots | gust knots | rain 1hr in | rain 24hr in | rain mn in | humidity % | barometer mb |
| 20260510211504 | 83 | 209 | 1.7 | 4.3 | 0.00 | 0.00 | 0.00 | 49 | 1014.7 |
| 20260510210037 | 83 | 221 | 2.6 | 7.0 | 0.00 | 0.00 | 0.00 | 47 | 1014.8 |
| 20260510204548 | 83 | 90 | 1.7 | 5.2 | 0.00 | 0.00 | 0.00 | 51 | 1014.7 |
| 20260510203047 | 83 | 216 | 2.6 | 7.8 | 0.00 | 0.00 | 0.00 | 51 | 1014.9 |
| 20260510201519 | 83 | 192 | 0.9 | 5.2 | 0.00 | 0.00 | 0.00 | 53 | 1014.8 |
| 20260510200034 | 83 | 240 | 4.3 | 8.7 | 0.00 | 0.00 | 0.00 | 49 | 1014.8 |
| 20260510194515 | 82 | 202 | 2.6 | 6.1 | 0.00 | 0.00 | 0.00 | 52 | 1014.8 |
| 20260510193042 | 83 | 360 | 1.7 | 4.3 | 0.00 | 0.00 | 0.00 | 53 | 1015.0 |
| 20260510191541 | 82 | 273 | 1.7 | 5.2 | 0.00 | 0.00 | 0.00 | 56 | 1015.1 |
| 20260510190025 | 82 | 47 | 1.7 | 7.0 | 0.00 | 0.00 | 0.00 | 60 | 1015.4 |
| 20260510184526 | 82 | 319 | 0.9 | 5.2 | 0.00 | 0.00 | 0.00 | 58 | 1015.7 |
| 20260510183032 | 82 | 175 | 1.7 | 5.2 | 0.00 | 0.00 | 0.00 | 59 | 1015.7 |
| 20260510181523 | 82 | 84 | 0.9 | 5.2 | 0.00 | 0.00 | 0.00 | 65 | 1015.9 |
| 20260510174535 | 81 | 204 | 0.9 | 7.0 | 0.00 | 0.00 | 0.00 | 65 | 1016.0 |
| 20260510173045 | 80 | 209 | 1.7 | 5.2 | 0.00 | 0.00 | 0.00 | 68 | 1016.0 |
| 20260510171556 | 80 | 84 | 1.7 | 3.5 | 0.00 | 0.00 | 0.00 | 70 | 1016.1 |
| 20260510170049 | 79 | 73 | 0.9 | 3.5 | 0.00 | 0.00 | 0.00 | 69 | 1016.1 |
| 20260510164604 | 79 | 273 | 1.7 | 5.2 | 0.00 | 0.00 | 0.00 | 68 | 1016.2 |
| 20260510163111 | 78 | 333 | 0.9 | 4.3 | 0.00 | 0.00 | 0.00 | 71 | 1016.3 |
| 20260510161541 | 77 | 56 | 1.7 | 5.2 | 0.00 | 0.00 | 0.00 | 74 | 1016.5 |
| 20260510160035 | 77 | 298 | 0.9 | 4.3 | 0.00 | 0.00 | 0.00 | 75 | 1016.5 |
| 20260510154543 | 76 | 165 | 1.7 | 7.0 | 0.00 | 0.00 | 0.00 | 75 | 1016.9 |
| 20260510153058 | 76 | 323 | 0.9 | 4.3 | 0.00 | 0.00 | 0.00 | 75 | 1016.7 |
| 20260510151550 | 75 | 329 | 0.9 | 4.3 | 0.00 | 0.00 | 0.00 | 77 | 1016.7 |
| 20260510144517 | 75 | 217 | 0.9 | 5.2 | 0.00 | 0.00 | 0.00 | 79 | 1016.7 |
| 20260510143056 | 74 | 30 | 0.9 | 4.3 | 0.00 | 0.00 | 0.00 | 81 | 1016.5 |
| 20260510141537 | 73 | 348 | 0.9 | 2.6 | 0.00 | 0.00 | 0.00 | 83 | 1016.5 |
| 20260510140011 | 72 | 211 | 2.6 | 4.3 | 0.00 | 0.00 | 0.00 | 82 | 1016.7 |
| 20260510134521 | 71 | 5 | 0.9 | 3.5 | 0.00 | 0.00 | 0.00 | 85 | 1016.5 |
| 20260510133002 | 70 | 309 | 0.9 | 3.5 | 0.00 | 0.00 | 0.00 | 85 | 1016.3 |
| 20260510131557 | 69 | 285 | 0.0 | 3.5 | 0.00 | 0.00 | 0.00 | 87 | 1016.2 |
| 20260510130020 | 68 | 308 | 1.7 | 3.5 | 0.00 | 0.00 | 0.00 | 87 | 1016.0 |
| 20260510124557 | 67 | 275 | 0.9 | 3.5 | 0.00 | 0.00 | 0.00 | 89 | 1016.0 |
| 20260510123102 | 66 | 207 | 0.9 | 3.5 | 0.00 | 0.00 | 0.00 | 90 | 1016.0 |
| 20260510121558 | 64 | 198 | 0.9 | 1.7 | 0.00 | 0.00 | 0.00 | 91 | 1015.9 |
| 20260510120037 | 63 | 194 | 0.9 | 1.7 | 0.00 | 0.00 | 0.00 | 91 | 1015.7 |
| 20260510114559 | 62 | 173 | 0.0 | 1.7 | 0.00 | 0.00 | 0.00 | 90 | 1015.5 |
| 20260510113012 | 62 | 173 | 0.0 | 0.0 | 0.00 | 0.00 | 0.00 | 90 | 1015.3 |
| 20260510111538 | 62 | 173 | 0.0 | 2.6 | 0.00 | 0.00 | 0.00 | 91 | 1015.2 |
| 20260510104604 | 61 | 172 | 0.0 | 0.0 | 0.00 | 0.00 | 0.00 | 90 | 1015.0 |
| 20260510103104 | 61 | 172 | 0.0 | 0.0 | 0.00 | 0.00 | 0.00 | 89 | 1014.6 |
| 20260510101554 | 62 | 172 | 0.0 | 0.0 | 0.00 | 0.00 | 0.00 | 90 | 1014.4 |
| 20260510100108 | 62 | 172 | 0.0 | 0.9 | 0.00 | 0.00 | 0.00 | 90 | 1014.3 |
| 20260510094514 | 62 | 172 | 0.0 | 0.0 | 0.00 | 0.00 | 0.00 | 89 | 1014.2 |
| 20260510093029 | 62 | 172 | 0.0 | 1.7 | 0.00 | 0.00 | 0.00 | 90 | 1014.0 |
| 20260510091528 | 61 | 171 | 0.0 | 1.7 | 0.00 | 0.00 | 0.00 | 90 | 1013.8 |
| 20260510090134 | 61 | 169 | 0.0 | 0.0 | 0.00 | 0.00 | 0.00 | 89 | 1013.5 |
| 20260510084613 | 61 | 169 | 0.0 | 1.7 | 0.00 | 0.00 | 0.00 | 89 | 1013.4 |
| 20260510083056 | 61 | 169 | 0.0 | 0.0 | 0.00 | 0.00 | 0.00 | 89 | 1013.4 |
| 20260510081553 | 62 | 169 | 0.0 | 0.9 | 0.00 | 0.00 | 0.00 | 89 | 1013.4 |
| 20260510080055 | 61 | 169 | 0.0 | 0.0 | 0.00 | 0.00 | 0.00 | 89 | 1013.3 |
| 20260510074554 | 61 | 169 | 0.0 | 0.9 | 0.00 | 0.00 | 0.00 | 88 | 1013.2 |
| 20260510073002 | 62 | 168 | 0.0 | 0.9 | 0.00 | 0.00 | 0.00 | 88 | 1013.3 |
| 20260510071522 | 61 | 168 | 0.0 | 0.0 | 0.00 | 0.00 | 0.00 | 88 | 1013.1 |
| 20260510070039 | 62 | 168 | 0.0 | 0.0 | 0.00 | 0.00 | 0.00 | 88 | 1013.4 |
| 20260510064537 | 61 | 168 | 0.0 | 0.0 | 0.00 | 0.00 | 0.00 | 87 | 1013.2 |
| 20260510063100 | 61 | 168 | 0.0 | 0.0 | 0.00 | 0.00 | 0.00 | 87 | 1013.1 |
| 20260510061554 | 62 | 168 | 0.0 | 0.0 | 0.00 | 0.00 | 0.00 | 87 | 1013.1 |
| 20260510060054 | 62 | 168 | 0.0 | 0.0 | 0.00 | 0.00 | 0.00 | 87 | 1013.2 |
| 20260510054554 | 62 | 168 | 0.0 | 0.0 | 0.00 | 0.00 | 0.00 | 87 | 1013.3 |
| 20260510051504 | 62 | 168 | 0.0 | 0.0 | 0.00 | 0.00 | 0.00 | 87 | 1013.7 |
| 20260510044502 | 62 | 168 | 0.0 | 0.0 | 0.00 | 0.00 | 0.00 | 86 | 1013.8 |
| 20260510043112 | 62 | 168 | 0.0 | 0.0 | 0.00 | 0.00 | 0.00 | 85 | 1013.9 |
| 20260510041555 | 63 | 168 | 0.0 | 0.0 | 0.00 | 0.00 | 0.00 | 85 | 1013.7 |
| 20260510040101 | 63 | 168 | 0.0 | 0.0 | 0.00 | 0.00 | 0.00 | 85 | 1013.7 |
| 20260510034549 | 63 | 168 | 0.0 | 0.0 | 0.00 | 0.00 | 0.00 | 86 | 1013.6 |
| 20260510033108 | 63 | 168 | 0.0 | 0.0 | 0.00 | 0.00 | 0.00 | 85 | 1013.5 |
| 20260510031617 | 64 | 168 | 0.0 | 0.0 | 0.00 | 0.00 | 0.00 | 85 | 1013.4 |
| 20260510030105 | 64 | 168 | 0.0 | 0.0 | 0.00 | 0.00 | 0.00 | 85 | 1013.4 |
| 20260510024518 | 64 | 168 | 0.0 | 0.0 | 0.00 | 0.00 | 0.00 | 84 | 1013.2 |
| 20260510023133 | 64 | 168 | 0.0 | 0.0 | 0.00 | 0.00 | 0.00 | 84 | 1013.2 |
| 20260510021534 | 65 | 168 | 0.0 | 0.0 | 0.00 | 0.00 | 0.00 | 83 | 1013.1 |
| 20260510020052 | 65 | 168 | 0.0 | 0.0 | 0.00 | 0.00 | 0.00 | 83 | 1013.3 |
| 20260510014558 | 65 | 168 | 0.0 | 0.0 | 0.00 | 0.00 | 0.00 | 82 | 1013.0 |
| 20260510013056 | 66 | 168 | 0.0 | 0.0 | 0.00 | 0.00 | 0.00 | 80 | 1012.6 |
| 20260510011540 | 67 | 168 | 0.0 | 0.0 | 0.00 | 0.00 | 0.00 | 80 | 1012.5 |
| 20260510010030 | 67 | 168 | 0.0 | 0.0 | 0.00 | 0.00 | 0.00 | 79 | 1012.5 |
| 20260510004509 | 68 | 168 | 0.0 | 0.0 | 0.00 | 0.00 | 0.00 | 79 | 1012.3 |
| 20260510003017 | 69 | 168 | 0.0 | 0.0 | 0.00 | 0.00 | 0.00 | 78 | 1012.2 |
| 20260510001556 | 70 | 168 | 0.0 | 0.0 | 0.00 | 0.00 | 0.00 | 78 | 1012.3 |
| 20260510000109 | 71 | 168 | 0.0 | 0.0 | 0.00 | 0.00 | 0.00 | 78 | 1012.3 |
| 20260509234508 | 71 | 168 | 0.0 | 0.0 | 0.00 | 0.00 | 0.00 | 78 | 1012.1 |
| 20260509233012 | 72 | 168 | 0.0 | 2.6 | 0.00 | 0.00 | 0.00 | 78 | 1011.6 |
| 20260509231522 | 72 | 167 | 0.0 | 2.6 | 0.00 | 0.00 | 0.00 | 78 | 1011.7 |
| 20260509230101 | 72 | 165 | 0.9 | 3.5 | 0.00 | 0.00 | 0.00 | 77 | 1011.6 |
| 20260509224546 | 72 | 161 | 0.9 | 4.3 | 0.00 | 0.00 | 0.00 | 77 | 1011.4 |
| 20260509223054 | 72 | 189 | 0.0 | 4.3 | 0.00 | 0.00 | 0.00 | 78 | 1011.5 |
| 20260509221550 | 72 | 225 | 0.0 | 6.1 | 0.00 | 0.00 | 0.00 | 77 | 1011.5 |
| 20260509220050 | 72 | 231 | 1.7 | 4.3 | 0.00 | 0.00 | 0.00 | 77 | 1011.7 |
| 20260509214541 | 73 | 193 | 0.0 | 3.5 | 0.00 | 0.00 | 0.00 | 77 | 1011.5 |
| 20260509213044 | 72 | 230 | 3.5 | 7.0 | 0.00 | 0.00 | 0.00 | 77 | 1011.5 |
| 20260509211543 | 72 | 140 | 2.6 | 7.0 | 0.00 | 0.00 | 0.00 | 77 | 1011.5 |